Flag for Canada Weather past 2 weeks in Cornwall, Ontario, Canada

Now
22 °F

Cold.


Feels Like: 16 °F
Forecast: 15 / 32 °F
Wind: 5 mph from East

Location: St Anicet

Current Time: Mar 3, 2015 at 11:53:39 PM

Latest Report: Mar 3, 2015 at 11:00 PM


Visibility: N/A

Pressure: 29.54 "Hg

Humidity: 97%

Dew point: 22 °F

Location of CornwallLocation

Historic Weather in Cornwall — Graph

°F

Cornwall temperature yesterday

Maximum temperature yesterday: 29 °F (at 2:00 PM)
Minimum temperature yesterday: 9 °F (at 11:00 PM)
Average temperature yesterday: 21 °F

Past Weeks' High & Low Weather Summary

 TemperatureHumidityPressure
High29 °F (Mar 2, 2:00 PM)100% (Feb 19, 1:00 AM)30.76 "Hg (Feb 19, 1:00 AM)
Low-24 °F (Feb 17, 5:00 AM)34% (Feb 24, 10:00 PM)29.58 "Hg (Mar 3, 10:00 PM)
Average7 °F69%30.15 "Hg
* Reported Feb 16 10:00 PM — Mar 3 10:00 PM, Cornwall, Weather by CustomWeather, © 2015

Note: Actual official high and low records may vary slightly from our data, if they occured in-between our weather recording intervals... More about our weather records

Advertising

Cornwall weather history for previous 24 hours

 ConditionsComfort  
Time TempWeatherWind HumidityBarometerVisibility
10:00 PM
Tue, Mar 3
21 °FCold.5 mph96%29.58 "HgN/A
9:00 PM20 °FCold.5 mph96%29.62 "HgN/A
8:00 PM21 °FCold.6 mph100%29.70 "HgN/A
7:00 PM23 °FCold.5 mph94%29.76 "HgN/A
6:00 PM26 °FChilly.7 mph64%29.83 "HgN/A
5:00 PM24 °FCold.3 mph53%29.92 "HgN/A
4:00 PM24 °FCold.7 mph51%29.98 "HgN/A
3:00 PM23 °FCold.8 mph53%30.05 "HgN/A
1:00 PM21 °FCold.6 mph51%30.19 "HgN/A
12:00 PM22 °FCold.2 mph44%30.27 "HgN/A
11:00 AM23 °FCold.No wind44%30.30 "HgN/A
10:00 AM15 °FCold.3 mph53%30.34 "HgN/A
9:00 AM11 °FCold.1 mph53%30.37 "HgN/A
8:00 AM-4 °FFrigid.No wind79%30.37 "HgN/A
7:00 AM-12 °FExtremely cold.No wind84%30.39 "HgN/A
6:00 AM-12 °FExtremely cold.1 mph91%30.39 "HgN/A
5:00 AM-9 °FFrigid.1 mph94%30.41 "HgN/A
4:00 AM-7 °FFrigid.No wind85%30.38 "HgN/A
3:00 AM-2 °FFrigid.2 mph84%30.38 "HgN/A
2:00 AM1 °FFrigid.2 mph75%30.38 "HgN/A
1:00 AM3 °FFrigid.3 mph79%30.38 "HgN/A
12:00 AM6 °FFrigid.2 mph68%30.37 "HgN/A
11:00 PM
Mon, Mar 2
9 °FFrigid.3 mph66%30.36 "HgN/A
Weather by CustomWeather, © 2015

See weather overviewHow to use our weather pages